Beauty, KY

4:34 AM EDT on August 29, 2016 (GMT -0400)
Prestonsburg

Weather History for KK22 - December, 2012

Change the Weather History Date:

Monday, December 10, 2012

  Actual Average (KJKL) Record (KJKL)
Temperature  
Mean Temperature 48 °F 39 °F  
Max Temperature 61 °F 47 °F 64 °F (1985)
Min Temperature 36 °F 31 °F 3 °F (1995)
Degree Days  
Heating Degree Days 16 26  
Month to date heating degree days 242  
Since 1 July heating degree days 1042  
Cooling Degree Days 0 0  
Month to date cooling degree days 0  
Year to date cooling degree days 1154  
Moisture  
Dew Point 49 °F    
Average Humidity 91    
Maximum Humidity 99    
Minimum Humidity 70    
Precipitation  
Precipitation 0.00 in 0.15 in 1.43 in (1994)
Month to date precipitation 1.42  
Year to date precipitation 45.58  
Snow  
Snow 0.00 in 0.20 in 1.00 in (2013)
Month to date snowfall 1.1  
Since 1 July snowfall 1.7  
Snow Depth -    
Sea Level Pressure  
Sea Level Pressure 29.74 in    
Wind  
Wind Speed 8 mph (WSW)    
Max Wind Speed 13 mph    
Max Gust Speed 18 mph    
Visibility 8 miles    
Events Rain    
T = Trace of Precipitation, MM = Missing Value Source: NWS Daily Summary

Daily Weather History Graph

Daily Weather History Graph

Search for Another Location

Airport or City:

Trip Planner

Search our weather history database for the weather conditions in past years. The results will help you decide how hot, cold, wet, or windy it might be!

Date:

Astronomy

Dec. 10, 2012 Rise Set
Actual Time 7:35 AM EST 5:11 PM EST
Civil Twilight 7:06 AM EST 5:41 PM EST
Nautical Twilight 6:33 AM EST 6:13 PM EST
Astronomical Twilight 6:01 AM EST 6:45 PM EST
Moon 4:19 AM EST (12/10) 2:58 PM EST (12/10)
Length of Visible Light 10h 34m
Length of Day
9h 36m
Waning Crescent, 10% of the Moon is Illuminated
Dec 10
Waning Crescent
Dec 13
New
Dec 20
First Quarter
Dec 28
Full
Jan 4
Last Quarter

Hourly Weather History & Observations

Time (EST) Temp. Windchill Dew Point Humidity Pressure Visibility Wind Dir Wind Speed Gust Speed Precip Events Conditions
12:15 AM 59.9 °F - 54.1 °F 81% 29.80 in 10.0 mi South 9.2 mph - N/A   Clear
12:35 AM 60.4 °F - 53.8 °F 79% 29.80 in 10.0 mi SSW 9.2 mph - N/A   Clear
12:55 AM 61.2 °F - 53.6 °F 76% 29.78 in 10.0 mi South 12.7 mph - N/A   Clear
1:15 AM 61.7 °F - 53.2 °F 74% 29.77 in 10.0 mi SSW 10.4 mph - N/A   Clear
1:35 AM 61.0 °F - 53.2 °F 76% 29.76 in 10.0 mi SSW 11.5 mph - N/A   Clear
1:55 AM 61.0 °F - 53.2 °F 76% 29.75 in 10.0 mi South 10.4 mph - N/A   Clear
2:15 AM 60.8 °F - 53.1 °F 76% 29.74 in 10.0 mi South 10.4 mph - N/A   Scattered Clouds
2:55 AM 61.3 °F - 52.5 °F 73% 29.74 in 10.0 mi SSW 6.9 mph - N/A   Clear
3:15 AM 61.7 °F - 52.2 °F 71% 29.74 in 10.0 mi SSW 5.8 mph - N/A   Clear
3:35 AM 61.9 °F - 52.2 °F 70% 29.73 in 10.0 mi South 8.1 mph - N/A   Scattered Clouds
3:55 AM 61.3 °F - 52.0 °F 71% 29.72 in 10.0 mi SSW 4.6 mph - N/A   Mostly Cloudy
4:15 AM 58.8 °F - 52.7 °F 80% 29.72 in 10.0 mi North 4.6 mph - N/A   Mostly Cloudy
4:35 AM 60.1 °F - 53.1 °F 78% 29.72 in 10.0 mi NE 3.5 mph - N/A   Overcast
5:15 AM 57.0 °F - 55.6 °F 95% 29.75 in 5.0 mi WNW 8.1 mph - N/A Rain Rain
5:35 AM 56.7 °F - 55.8 °F 97% 29.76 in 7.0 mi West 3.5 mph - N/A Rain Rain
5:55 AM 56.7 °F - 55.6 °F 96% 29.76 in 10.0 mi West 4.6 mph - N/A Rain Rain
6:15 AM 56.3 °F - 55.8 °F 98% 29.77 in 7.0 mi WSW 4.6 mph - N/A Rain Light Rain
6:55 AM 56.3 °F - 55.0 °F 96% 29.74 in 10.0 mi SSE 8.1 mph - N/A   Drizzle
7:15 AM 56.3 °F - 54.7 °F 94% 29.72 in 10.0 mi SSE 6.9 mph - N/A Rain Rain
7:35 AM 56.3 °F - 54.5 °F 94% 29.74 in 10.0 mi South 10.4 mph - N/A Rain Rain
7:55 AM 55.9 °F - 54.7 °F 96% 29.75 in 10.0 mi SSW 6.9 mph - N/A Rain Light Rain
8:15 AM 56.1 °F - 54.5 °F 94% 29.73 in 10.0 mi South 11.5 mph - N/A Rain Rain
8:35 AM 55.9 °F - 54.1 °F 94% 29.72 in 10.0 mi SSW 6.9 mph - N/A Rain Light Rain
8:55 AM 55.8 °F - 54.1 °F 94% 29.73 in 10.0 mi SSW 6.9 mph - N/A   Drizzle
9:15 AM 56.1 °F - 54.1 °F 93% 29.74 in 10.0 mi SSW 8.1 mph - N/A Rain Light Rain
9:35 AM 55.8 °F - 54.1 °F 94% 29.74 in 7.0 mi SSW 10.4 mph - N/A Rain Rain
9:55 AM 55.8 °F - 54.1 °F 94% 29.74 in 10.0 mi South 10.4 mph - N/A Rain Rain
10:15 AM 55.4 °F - 54.0 °F 95% 29.73 in 10.0 mi South 10.4 mph 17.3 mph N/A Rain Light Rain
10:35 AM 55.8 °F - 54.1 °F 94% 29.72 in 10.0 mi South 11.5 mph - N/A Rain Light Rain
10:55 AM 55.8 °F - 54.0 °F 94% 29.68 in 10.0 mi SSE 12.7 mph - N/A Rain Rain
11:15 AM 56.3 °F - 53.8 °F 91% 29.68 in 10.0 mi South 11.5 mph - N/A   Overcast
11:35 AM 56.3 °F - 53.8 °F 91% 29.69 in 10.0 mi SW 4.6 mph - N/A   Light Drizzle
11:55 AM 56.5 °F - 54.1 °F 92% 29.69 in 10.0 mi SW 4.6 mph - N/A   Overcast
12:15 PM 56.7 °F - 53.8 °F 90% 29.67 in 10.0 mi SSW 5.8 mph - N/A Rain Light Rain
12:35 PM 56.3 °F - 54.0 °F 92% 29.66 in 10.0 mi SSW 3.5 mph - N/A Rain Rain
12:55 PM 56.3 °F - 54.5 °F 94% 29.66 in 10.0 mi SW 3.5 mph - N/A   Drizzle
1:15 PM 56.1 °F - 54.7 °F 95% 29.65 in 7.0 mi Calm Calm - N/A Rain Light Rain
1:35 PM 55.6 °F - 54.5 °F 96% 29.65 in 5.0 mi Calm Calm - N/A Rain Rain
1:55 PM 55.4 °F - 54.7 °F 97% 29.64 in 5.0 mi Calm Calm - N/A Rain Rain
2:15 PM 55.4 °F - 54.7 °F 97% 29.63 in 7.0 mi Calm Calm - N/A Rain Rain
2:35 PM 55.4 °F - 54.7 °F 97% 29.62 in 7.0 mi Calm Calm - N/A Rain Rain
2:55 PM 55.6 °F - 54.9 °F 97% 29.62 in 10.0 mi South 5.8 mph - N/A   Light Drizzle
3:15 PM 55.9 °F - 55.0 °F 97% 29.62 in 10.0 mi SSW 8.1 mph - N/A   Light Drizzle
3:35 PM 55.8 °F - 54.0 °F 94% 29.63 in 7.0 mi NNW 11.5 mph 16.1 mph N/A Rain Rain
3:55 PM 51.4 °F - 50.4 °F 96% 29.65 in 4.0 mi NW 11.5 mph 18.4 mph N/A Rain Heavy Rain
4:15 PM 49.8 °F - 48.7 °F 96% 29.66 in 4.0 mi NW 9.2 mph 16.1 mph N/A   Heavy Drizzle
4:35 PM 49.1 °F - 46.9 °F 92% 29.68 in 10.0 mi NW 9.2 mph 16.1 mph N/A   Overcast
4:55 PM 47.7 °F - 45.9 °F 93% 29.69 in 10.0 mi NNW 11.5 mph 18.4 mph N/A   Overcast
5:15 PM 46.6 °F - 44.6 °F 93% 29.69 in 10.0 mi NNW 10.4 mph - N/A   Overcast
5:35 PM 45.7 °F 40.2 °F 43.7 °F 93% 29.72 in 10.0 mi NNW 11.5 mph 18.4 mph N/A   Overcast
5:55 PM 44.2 °F 38.4 °F 43.0 °F 95% 29.74 in 3.0 mi NNW 11.5 mph 17.3 mph N/A   Drizzle
6:15 PM 42.8 °F 36.6 °F 41.9 °F 97% 29.76 in 2.0 mi North 11.5 mph 18.4 mph N/A Rain Rain
6:35 PM 41.0 °F 35.2 °F 39.7 °F 95% 29.78 in 5.0 mi NNW 9.2 mph 17.3 mph N/A   Light Drizzle
6:55 PM 40.1 °F 34.7 °F 38.5 °F 94% 29.78 in 7.0 mi North 8.1 mph 16.1 mph N/A   Overcast
7:15 PM 39.4 °F 33.2 °F 37.9 °F 95% 29.82 in 7.0 mi NNW 9.2 mph - N/A   Overcast
7:35 PM 38.8 °F 33.8 °F 37.6 °F 95% 29.82 in 3.0 mi North 6.9 mph - N/A   Overcast
7:55 PM 38.5 °F 36.1 °F 37.4 °F 96% 29.82 in 7.0 mi North 3.5 mph - N/A   Overcast
8:15 PM 38.3 °F 35.9 °F 37.6 °F 97% 29.82 in 10.0 mi NNW 3.5 mph - N/A   Overcast
8:35 PM 38.5 °F 36.1 °F 37.4 °F 96% 29.85 in 10.0 mi NNW 3.5 mph - N/A   Overcast
8:55 PM 38.3 °F 35.9 °F 37.4 °F 97% 29.85 in 10.0 mi North 3.5 mph - N/A   Overcast
9:15 PM 38.1 °F 34.6 °F 37.6 °F 98% 29.84 in 4.0 mi North 4.6 mph - N/A   Overcast
9:35 PM 37.4 °F - 36.9 °F 98% 29.86 in 3.0 mi Calm Calm - N/A   Overcast
9:55 PM 37.4 °F 34.9 °F 36.9 °F 98% 29.86 in 5.0 mi WNW 3.5 mph - N/A   Overcast
10:15 PM 37.4 °F 33.8 °F 36.5 °F 97% 29.87 in 10.0 mi WSW 4.6 mph - N/A   Overcast
10:35 PM 36.9 °F 34.3 °F 36.5 °F 99% 29.88 in 10.0 mi WSW 3.5 mph - N/A   Overcast
10:55 PM 37.0 °F - 36.5 °F 98% 29.87 in 10.0 mi Calm Calm - N/A   Overcast
11:15 PM 37.0 °F - 36.3 °F 97% 29.88 in 10.0 mi Calm Calm - N/A   Overcast
11:35 PM 37.0 °F 34.5 °F 36.5 °F 98% 29.89 in 10.0 mi NW 3.5 mph - N/A   Overcast
11:55 PM 36.9 °F 34.3 °F 36.0 °F 97% 29.90 in 10.0 mi NW 3.5 mph - N/A   Overcast